SCP
-0 0 0 0 0 0 0 0 0 0 0 0 -0 0 -0 0 0 0 0 0 0 0 0 0 0 0 0 0 0 0 0 0 0 0 0 0 0 0 0 0 0 0 0 0
0 0 -0 -0 0 0 0 0 0 0 0 0 0 0 0 0 0 0 0 0 0 0 0 0 0 0 0 0 0 0 0 0 0 0 0 0 0 0 0 0 0 0 0 0
0 0 0 0 0 0 0 0 0 0 0 0 0 0 0 0 0 0 0 0 0 0 0 0 0 0 0 0 0 0 0 0 0 0 0 0 0 -0 -0 0 0 0 0 0
0 -0 0 0 0 0 0 0 0 0 0 0 0 0 0 0 0 0 0 -0 0 0 0 0 0 0 0 0 0 0 0 0 0 -0 -0 0 0 -0 -0 -0 0 0 0 0
-0 -0 0 -0 0 0 0 0 0 0 0 0 0 0 0 0 0 0 0 0 0 0 0 0 0 0 -0 -0 -0 -0 -0 -0 -0 -0 -0 -0 -0 -0 -0 0 0 0 0 0
-0 -0 -0 -0 0 -0 0 0 0 0 0 0 0 0 0 0 0 0 0 0 0 0 0 -0 -0 -0 -0 -0 -0 -0 -0 -0 -0 -0 0 0 0 0 0 0 0 0 0 0
0 0 0 0 0 -0 0 0 -0 -0 0 0 0 0 0 0 0 0 0 0 0 0 0 0 0 0 0 0 0 0 0 -0 -0 0 0 -0 0 0 0 0 0 0 0 0
0 0 0 0 0 0 0 0 0 0 0 0 0 0 0 0 0 0 0 0 0 0 0 0 0 -0 -0 0 0 -0 -0 -0 -0 -0 -0 -0 -0 0 0 0 0 0 0 0
0 0 0 0 0 0 0 0 0 0 0 0 0 0 0 0 0 0 0 0 0 0 0 0 0 0 -0 0 -0 -0 0 0 0 0 0 0 0 0 0 0 0 0 0 0
0 0 0 0 0 0 0 0 0 0 0 0 0 0 0 0 0 0 0 0 0 -0 -0 -0 0 -0 -0 -0 -0 0 0 0 0 0 0 0 0 0 0 0 0 0 0 0
-0 -0 -0 0 0 0 0 0 0 0 0 0 -0 0 0 0 0 0 0 0 0 -0 -0 -0 -0 -0 -0 -0 -0 -0 -0 -0 0 0 0 0 0 0 0 0 0 0 0 0
0 0 0 -0 0 0 0 0 0 -0 -0 0 0 0 0 0 0 0 0 0 0 -0 -0 -0 -0 -0 -0 -0 -0 -0 -0 -0 -0 -0 -0 0 0 0 0 0 0 0 0 0
-0 -0 0 -0 0 -0 -0 -0 0 -0 0 -0 0 0 0 0 0 0 0 0 0 0 0 -0 -0 -0 -0 -0 -0 -0 -0 -0 0 0 0 0 0 0 0 0 0 0 0 0
0 -0 0 -0 -0 -0 -0 0 0 -0 -0 -0 -0 -0 -0 0 0 0 0 0 0 0 0 0 0 0 0 0 0 0 0 0 0 0 0 0 0 0 0 0 0 0 0 0
0 0 0 0 0 0 0 -0 -0 -0 0 -0 -0 -0 -0 0 0 -0 -0 -0 -0 -0 -0 -0 -0 0 0 0 0 0 0 0 0 0 0 0 0 0 0 0 0 0 0 0
0 0 0 0 0 0 0 0 0 0 0 0 0 0 0 0 0 0 0 0 0 0 0 0 0 0 0 0 0 0 0 0 0 0 0 0 0 0 0 0 0 0 0 0
0 0 0 0 0 0 0 0 0 0 0 0 0 0 0 0 0 0 0 0 0 0 0 0 0 0 0 0 0 0 0 0 0 0 0 0 0 0 0 0 0 0 0 0
0 0 0 0 0 0 0 0 0 0 0 0 0 0 0 0 0 0 0 0 0 0 0 0 0 0 0 0 0 0 0 0 0 0 0 0 0 0 0 0 0 0 0 0
0 0 0 0 0 0 0 0 0 0 0 0 0 0 0 0 0 0 0 0 0 0 0 0 0 0 0 0 0 0 0 0 0 0 0 0 0 0 0 0 0 0 0 0
0 0 0 0 0 0 0 0 0 0 0 0 0 0 0 0 0 0 0 0 0 0 0 0 0 0 0 0 0 0 0 0 0 0 0 0 0 0 0 0 0 0 0 0
0 0 0 0 0 0 0 0 0 0 0 0 0 0 0 0 0 0 0 0 0 0 0 0 0 0 0 0 0 0 0 0 0 0 0 0 0 0 0 0 0 0 0 0
0 0 0 0 0 0 0 0 0 0 0 0 0 0 0 0 0 0 0 0 0 0 0 0 0 0 0 0 0 0 0 0 0 0 0 0 0 0 0 0 0 0 0 0
0 0 0 0 0 0 0 0 0 0 0 0 0 0 0 0 0 0 0 0 0 0 0 0 0 0 0 0 0 0 0 0 0 0 0 0 0 0 0 0 0 0 0 0
0 0 0 0 0 0 0 0 0 0 0 0 0 0 0 0 0 0 0 0 0 0 0 0 0 0 0 0 0 0 0 0 0 0 0 0 0 0 0 0 0 0 0 0
-0 0 0 0 0 0 0 0 0 0 0 0 0 0 0 0 0 0 0 0 0 0 0 0 0 0 0 0 0 0 0 0 0 0 0 0 0 0 0 0 0 0 0 0
-0 -0 0 0 0 0 0 0 0 0 0 0 0 0 0 0 0 0 0 0 0 0 0 0 0 0 0 0 0 0 0 0 0 0 0 0 0 0 0 0 0 0 0 0
0 0 0 0 0 0 0 0 0 0 0 0 0 0 0 0 0 0 0 0 0 0 0 0 0 0 0 0 0 0 0 0 0 0 0 0 0 0 0 0 0 0 0 0
Wind_Speed_500mb
11 7 2 5 7 12 10 4 5 13 16 27 34 38 51 59 75 74 72 61 52 75 75 60 49 33 33 58 59 60 64 63 57 42 52 48 49 47 56 46 52 56 64 66
2 4 8 7 14 9 8 6 4 7 3 15 36 53 56 67 68 69 69 74 80 83 92 86 76 65 65 63 61 55 54 52 56 46 47 46 41 30 31 28 16 67 42 50
6 5 6 7 4 4 4 3 5 6 4 2 13 33 50 53 60 60 64 71 83 89 87 84 77 80 77 65 62 65 62 53 45 38 35 36 34 28 24 21 21 25 28 62
5 8 3 9 6 7 3 1 9 7 9 8 5 8 46 51 54 61 69 76 77 75 74 71 66 66 63 62 62 56 61 55 43 39 40 33 29 27 23 18 13 14 15 20
4 4 10 6 7 5 2 1 3 7 12 8 8 8 17 47 43 45 51 59 63 65 64 66 69 65 64 64 60 54 50 46 40 36 38 37 35 31 25 16 9 9 13 12
3 4 7 7 6 6 6 4 5 2 6 15 10 11 7 37 40 43 47 52 56 60 61 63 62 61 65 67 63 60 51 46 39 34 31 27 27 23 20 17 13 11 6 5
4 6 12 10 10 8 3 8 15 14 9 6 6 6 9 20 32 39 43 47 49 54 59 56 50 50 58 58 63 51 46 41 39 37 33 31 25 22 19 14 10 7 6 6
2 2 11 16 8 12 8 18 23 21 20 25 24 15 11 15 22 28 34 38 43 43 43 43 43 41 46 53 46 38 36 34 34 33 32 29 26 23 19 16 12 9 8 10
14 10 7 26 8 12 17 20 19 19 21 21 22 17 13 13 15 19 24 29 32 29 31 36 37 39 36 41 34 35 35 30 27 24 21 20 19 20 19 19 17 16 15 13
3 5 16 24 29 20 27 23 22 19 21 18 14 14 12 10 10 10 13 15 17 19 25 27 26 27 34 31 29 30 29 29 25 18 17 15 17 18 20 18 16 17 17 18
11 14 9 29 35 30 30 24 24 22 17 11 9 8 7 4 2 3 4 5 6 12 16 20 24 24 20 20 22 24 25 25 24 23 22 22 22 19 18 21 24 24 23 22
12 23 17 9 53 42 41 35 28 24 21 18 15 11 9 8 7 6 6 7 9 12 15 20 25 26 26 25 29 28 26 27 25 24 23 21 17 15 21 23 24 26 30 32
10 12 47 12 30 50 46 42 36 31 25 21 18 17 15 14 13 14 15 15 15 17 18 21 22 27 29 29 31 32 32 32 32 30 26 24 23 23 20 17 22 26 30 32
41 16 31 30 27 58 50 41 36 33 29 25 23 21 21 21 21 22 21 23 25 24 23 24 24 25 25 27 28 29 29 30 31 31 31 31 29 29 27 25 23 23 25 28
52 42 22 36 31 54 52 48 46 42 36 32 30 28 27 28 29 29 31 34 36 36 36 32 27 22 27 28 28 26 26 27 25 24 25 26 28 30 32 32 31 30 27 26
54 47 41 30 48 53 61 58 55 52 47 41 37 36 34 32 33 34 36 36 35 32 32 32 32 28 27 26 25 24 23 19 17 19 20 23 25 25 26 27 28 29 29 28
56 53 56 49 56 61 72 66 61 55 48 44 39 35 35 34 35 35 33 32 33 30 27 23 20 25 25 26 23 19 16 16 19 20 22 24 24 24 24 25 26 27 30 32
56 65 63 59 57 59 66 65 60 55 51 43 39 38 37 36 32 27 26 29 30 29 27 24 25 26 27 25 22 20 21 21 22 24 25 27 28 28 28 27 27 29 30 31
61 58 51 55 52 54 60 62 60 53 49 46 44 42 35 33 31 30 29 31 30 29 25 31 28 27 25 23 23 24 25 25 26 27 30 30 29 30 31 32 32 34 35 37
57 57 53 41 49 53 56 56 55 55 52 49 45 42 40 36 33 32 32 33 31 29 27 27 28 27 26 26 28 28 28 30 32 32 32 33 33 33 34 35 37 39 41 42
41 53 56 52 48 52 53 53 57 60 55 51 48 42 36 31 34 34 36 35 24 32 28 27 28 26 26 27 30 31 32 34 35 34 35 34 35 36 36 37 39 41 42 43
34 39 51 52 47 49 51 52 55 56 54 50 45 41 40 39 36 34 31 28 21 35 29 26 26 26 27 30 32 33 33 35 36 37 38 38 39 39 37 37 39 40 41 43
25 32 40 48 49 48 52 56 56 55 54 50 46 42 38 31 30 32 29 24 22 27 25 25 28 30 31 34 33 34 35 36 36 36 36 36 39 39 37 39 39 40 42 44
28 31 39 42 45 48 55 57 57 55 51 44 41 38 36 34 29 27 26 28 27 28 28 27 30 32 34 36 37 40 41 37 37 40 40 37 39 39 39 37 38 39 43 44
31 29 39 47 51 51 49 51 55 55 51 48 43 40 35 32 28 25 28 27 29 31 31 31 33 34 36 37 37 39 38 37 37 35 32 37 38 36 36 37 39 42 43 43
36 44 45 50 53 50 52 57 58 55 52 46 41 37 33 31 28 27 27 29 31 32 32 33 33 34 35 35 36 36 36 34 30 27 31 34 36 34 35 35 37 38 41 42
48 43 49 55 54 54 57 58 58 57 51 43 36 34 33 29 27 27 29 30 31 31 31 30 31 31 31 31 32 32 32 29 28 27 29 30 29 29 30 31 31 34 38 39
Wind_Direction_500mb
103 157 351 13 10 352 60 24 63 316 337 336 344 349 346 347 5 20 32 40 44 56 64 79 98 124 130 114 101 95 100 100 96 99 124 133 165 191 197 202 208 218 223 226
285 251 81 49 3 352 39 348 283 310 32 357 347 354 357 2 8 14 28 36 47 50 68 71 82 85 104 98 93 98 98 96 91 95 81 97 101 108 165 171 217 214 204 218
266 285 277 331 297 345 122 309 286 6 261 335 345 2 356 359 3 15 27 37 50 59 68 66 68 77 85 86 90 87 89 88 76 78 95 97 106 120 130 149 177 196 196 224
265 352 328 230 245 187 150 164 320 318 308 214 222 320 14 21 20 30 42 50 59 63 68 76 81 84 91 92 88 89 89 83 84 87 90 94 97 98 108 116 144 160 178 193
155 239 288 276 244 169 130 257 325 333 346 339 261 319 13 30 42 44 50 58 62 68 71 73 75 80 84 83 88 94 89 89 91 96 100 105 105 103 100 97 113 113 151 181
161 173 234 232 166 169 133 285 136 175 357 5 54 45 335 20 42 50 54 56 60 64 65 66 68 70 71 71 72 73 76 81 87 87 85 83 84 90 93 101 103 94 72 61
191 241 284 236 183 148 133 230 156 133 117 140 82 111 41 37 49 54 57 61 60 59 60 60 60 62 66 67 63 60 61 67 70 71 71 74 74 75 76 74 59 41 26 350
106 264 294 160 110 172 191 150 153 146 141 125 117 117 90 67 61 61 62 62 59 60 65 66 62 61 68 63 58 54 53 52 53 51 49 51 49 51 51 53 53 54 30 358
186 220 251 195 215 218 190 175 173 164 163 150 144 144 121 98 76 66 61 59 55 51 51 53 51 44 48 56 48 42 38 37 40 40 35 31 31 26 25 26 25 25 15 4
10 250 226 227 229 241 201 199 186 182 173 164 142 139 135 116 95 78 67 61 58 51 47 45 44 40 39 35 31 26 22 18 16 12 16 10 13 9 355 347 346 346 344 344
268 270 271 238 221 210 202 205 193 187 187 179 181 183 184 174 129 91 84 65 39 36 30 21 20 20 19 12 13 9 3 1 2 1 0 357 354 355 348 342 335 333 326 320
219 214 199 232 208 200 203 208 214 209 199 203 208 218 229 238 248 272 313 337 349 349 350 354 5 4 359 359 357 354 354 358 3 1 359 353 346 339 339 331 319 313 310 306
212 231 209 242 207 205 206 206 209 212 216 219 224 230 240 253 263 268 276 286 292 297 308 320 327 330 335 336 338 335 339 344 344 350 349 351 356 356 354 338 329 316 309 302
218 209 206 218 202 201 209 210 218 221 222 230 239 246 250 255 261 265 273 279 282 285 287 292 296 306 310 315 315 316 323 326 332 337 340 346 349 351 350 345 342 336 330 329
214 214 235 228 214 202 205 207 212 217 222 229 241 251 257 264 269 273 273 273 274 275 277 276 275 278 282 287 292 297 301 307 314 316 322 326 331 331 331 334 335 335 332 326
209 216 227 238 214 207 205 209 215 218 221 227 235 242 247 251 254 258 260 261 263 267 269 266 262 267 273 279 285 286 286 291 297 304 310 316 319 324 330 332 333 336 338 337
200 214 217 220 214 210 210 214 219 221 226 229 236 240 244 249 252 254 256 259 265 270 276 280 265 267 277 286 287 284 286 292 297 302 306 311 314 317 320 323 326 328 329 329
227 233 226 223 219 216 215 218 222 224 226 232 234 238 242 248 256 259 262 261 265 270 275 280 279 279 283 285 282 283 289 290 292 297 300 305 309 312 310 310 311 313 314 316
230 235 240 235 233 232 227 226 226 227 228 230 235 241 251 255 255 259 264 268 269 279 279 272 274 278 278 271 272 278 281 280 283 288 293 299 301 300 300 301 302 306 307 309
228 232 237 243 240 236 234 232 229 227 229 232 235 236 244 249 254 261 265 270 271 273 270 265 269 273 271 270 272 275 277 280 285 289 293 295 295 293 293 294 295 299 302 305
236 234 236 238 245 239 235 232 227 225 226 229 232 240 248 251 253 256 260 269 272 264 262 262 266 266 266 270 271 276 280 283 285 287 287 287 287 288 289 289 290 294 298 301
253 247 234 237 241 236 233 229 227 228 227 228 231 233 238 245 251 255 259 266 247 252 258 260 260 262 265 268 271 274 278 281 282 284 288 288 284 281 282 287 289 293 296 298
273 258 244 238 238 239 231 226 223 225 227 228 231 234 241 249 249 251 255 260 250 251 250 250 255 260 265 268 271 275 278 280 282 283 285 289 291 280 282 288 290 294 296 299
289 258 248 242 240 235 226 223 221 221 223 225 229 235 237 237 241 247 247 253 257 259 262 260 261 263 265 269 272 273 276 280 276 279 279 285 291 287 287 288 292 295 298 301
289 266 244 242 236 234 230 225 220 216 216 219 225 229 232 235 237 239 250 258 263 266 270 269 270 271 274 280 283 286 285 286 286 283 284 287 289 288 286 288 293 298 300 303
280 273 256 238 238 235 228 223 221 219 217 219 224 228 233 238 244 245 250 258 264 269 273 275 277 279 282 284 285 286 286 288 289 287 284 282 282 283 286 292 298 302 303 306
286 267 249 238 227 225 228 224 220 218 219 219 221 226 233 240 247 257 263 265 267 269 272 276 279 280 281 283 283 284 283 281 275 274 275 278 282 287 293 297 301 305 305 306
Wind_Speed_850mb
11 7 2 5 7 12 10 4 5 13 16 27 34 38 51 59 75 74 72 61 52 75 75 60 49 33 33 58 59 60 64 63 57 42 52 48 49 47 56 46 52 56 64 66
2 4 8 7 14 9 8 6 4 7 3 15 36 53 56 67 68 69 69 74 80 83 92 86 76 65 65 63 61 55 54 52 56 46 47 46 41 30 31 28 16 67 42 50
6 5 6 7 4 4 4 3 5 6 4 2 13 33 50 53 60 60 64 71 83 89 87 84 77 80 77 65 62 65 62 53 45 38 35 36 34 28 24 21 21 25 28 62
5 8 3 9 6 7 3 1 9 7 9 8 5 8 46 51 54 61 69 76 77 75 74 71 66 66 63 62 62 56 61 55 43 39 40 33 29 27 23 18 13 14 15 20
4 4 10 6 7 5 2 1 3 7 12 8 8 8 17 47 43 45 51 59 63 65 64 66 69 65 64 64 60 54 50 46 40 36 38 37 35 31 25 16 9 9 13 12
3 4 7 7 6 6 6 4 5 2 6 15 10 11 7 37 40 43 47 52 56 60 61 63 62 61 65 67 63 60 51 46 39 34 31 27 27 23 20 17 13 11 6 5
4 6 12 10 10 8 3 8 15 14 9 6 6 6 9 20 32 39 43 47 49 54 59 56 50 50 58 58 63 51 46 41 39 37 33 31 25 22 19 14 10 7 6 6
2 2 11 16 8 12 8 18 23 21 20 25 24 15 11 15 22 28 34 38 43 43 43 43 43 41 46 53 46 38 36 34 34 33 32 29 26 23 19 16 12 9 8 10
14 10 7 26 8 12 17 20 19 19 21 21 22 17 13 13 15 19 24 29 32 29 31 36 37 39 36 41 34 35 35 30 27 24 21 20 19 20 19 19 17 16 15 13
3 5 16 24 29 20 27 23 22 19 21 18 14 14 12 10 10 10 13 15 17 19 25 27 26 27 34 31 29 30 29 29 25 18 17 15 17 18 20 18 16 17 17 18
11 14 9 29 35 30 30 24 24 22 17 11 9 8 7 4 2 3 4 5 6 12 16 20 24 24 20 20 22 24 25 25 24 23 22 22 22 19 18 21 24 24 23 22
12 23 17 9 53 42 41 35 28 24 21 18 15 11 9 8 7 6 6 7 9 12 15 20 25 26 26 25 29 28 26 27 25 24 23 21 17 15 21 23 24 26 30 32
10 12 47 12 30 50 46 42 36 31 25 21 18 17 15 14 13 14 15 15 15 17 18 21 22 27 29 29 31 32 32 32 32 30 26 24 23 23 20 17 22 26 30 32
41 16 31 30 27 58 50 41 36 33 29 25 23 21 21 21 21 22 21 23 25 24 23 24 24 25 25 27 28 29 29 30 31 31 31 31 29 29 27 25 23 23 25 28
52 42 22 36 31 54 52 48 46 42 36 32 30 28 27 28 29 29 31 34 36 36 36 32 27 22 27 28 28 26 26 27 25 24 25 26 28 30 32 32 31 30 27 26
54 47 41 30 48 53 61 58 55 52 47 41 37 36 34 32 33 34 36 36 35 32 32 32 32 28 27 26 25 24 23 19 17 19 20 23 25 25 26 27 28 29 29 28
56 53 56 49 56 61 72 66 61 55 48 44 39 35 35 34 35 35 33 32 33 30 27 23 20 25 25 26 23 19 16 16 19 20 22 24 24 24 24 25 26 27 30 32
56 65 63 59 57 59 66 65 60 55 51 43 39 38 37 36 32 27 26 29 30 29 27 24 25 26 27 25 22 20 21 21 22 24 25 27 28 28 28 27 27 29 30 31
61 58 51 55 52 54 60 62 60 53 49 46 44 42 35 33 31 30 29 31 30 29 25 31 28 27 25 23 23 24 25 25 26 27 30 30 29 30 31 32 32 34 35 37
57 57 53 41 49 53 56 56 55 55 52 49 45 42 40 36 33 32 32 33 31 29 27 27 28 27 26 26 28 28 28 30 32 32 32 33 33 33 34 35 37 39 41 42
41 53 56 52 48 52 53 53 57 60 55 51 48 42 36 31 34 34 36 35 24 32 28 27 28 26 26 27 30 31 32 34 35 34 35 34 35 36 36 37 39 41 42 43
34 39 51 52 47 49 51 52 55 56 54 50 45 41 40 39 36 34 31 28 21 35 29 26 26 26 27 30 32 33 33 35 36 37 38 38 39 39 37 37 39 40 41 43
25 32 40 48 49 48 52 56 56 55 54 50 46 42 38 31 30 32 29 24 22 27 25 25 28 30 31 34 33 34 35 36 36 36 36 36 39 39 37 39 39 40 42 44
28 31 39 42 45 48 55 57 57 55 51 44 41 38 36 34 29 27 26 28 27 28 28 27 30 32 34 36 37 40 41 37 37 40 40 37 39 39 39 37 38 39 43 44
31 29 39 47 51 51 49 51 55 55 51 48 43 40 35 32 28 25 28 27 29 31 31 31 33 34 36 37 37 39 38 37 37 35 32 37 38 36 36 37 39 42 43 43
36 44 45 50 53 50 52 57 58 55 52 46 41 37 33 31 28 27 27 29 31 32 32 33 33 34 35 35 36 36 36 34 30 27 31 34 36 34 35 35 37 38 41 42
48 43 49 55 54 54 57 58 58 57 51 43 36 34 33 29 27 27 29 30 31 31 31 30 31 31 31 31 32 32 32 29 28 27 29 30 29 29 30 31 31 34 38 39
Wind_Direction_850mb
103 157 351 13 10 352 60 24 63 316 337 336 344 349 346 347 5 20 32 40 44 56 64 79 98 124 130 114 101 95 100 100 96 99 124 133 165 191 197 202 208 218 223 226
285 251 81 49 3 352 39 348 283 310 32 357 347 354 357 2 8 14 28 36 47 50 68 71 82 85 104 98 93 98 98 96 91 95 81 97 101 108 165 171 217 214 204 218
266 285 277 331 297 345 122 309 286 6 261 335 345 2 356 359 3 15 27 37 50 59 68 66 68 77 85 86 90 87 89 88 76 78 95 97 106 120 130 149 177 196 196 224
265 352 328 230 245 187 150 164 320 318 308 214 222 320 14 21 20 30 42 50 59 63 68 76 81 84 91 92 88 89 89 83 84 87 90 94 97 98 108 116 144 160 178 193
155 239 288 276 244 169 130 257 325 333 346 339 261 319 13 30 42 44 50 58 62 68 71 73 75 80 84 83 88 94 89 89 91 96 100 105 105 103 100 97 113 113 151 181
161 173 234 232 166 169 133 285 136 175 357 5 54 45 335 20 42 50 54 56 60 64 65 66 68 70 71 71 72 73 76 81 87 87 85 83 84 90 93 101 103 94 72 61
191 241 284 236 183 148 133 230 156 133 117 140 82 111 41 37 49 54 57 61 60 59 60 60 60 62 66 67 63 60 61 67 70 71 71 74 74 75 76 74 59 41 26 350
106 264 294 160 110 172 191 150 153 146 141 125 117 117 90 67 61 61 62 62 59 60 65 66 62 61 68 63 58 54 53 52 53 51 49 51 49 51 51 53 53 54 30 358
186 220 251 195 215 218 190 175 173 164 163 150 144 144 121 98 76 66 61 59 55 51 51 53 51 44 48 56 48 42 38 37 40 40 35 31 31 26 25 26 25 25 15 4
10 250 226 227 229 241 201 199 186 182 173 164 142 139 135 116 95 78 67 61 58 51 47 45 44 40 39 35 31 26 22 18 16 12 16 10 13 9 355 347 346 346 344 344
268 270 271 238 221 210 202 205 193 187 187 179 181 183 184 174 129 91 84 65 39 36 30 21 20 20 19 12 13 9 3 1 2 1 0 357 354 355 348 342 335 333 326 320
219 214 199 232 208 200 203 208 214 209 199 203 208 218 229 238 248 272 313 337 349 349 350 354 5 4 359 359 357 354 354 358 3 1 359 353 346 339 339 331 319 313 310 306
212 231 209 242 207 205 206 206 209 212 216 219 224 230 240 253 263 268 276 286 292 297 308 320 327 330 335 336 338 335 339 344 344 350 349 351 356 356 354 338 329 316 309 302
218 209 206 218 202 201 209 210 218 221 222 230 239 246 250 255 261 265 273 279 282 285 287 292 296 306 310 315 315 316 323 326 332 337 340 346 349 351 350 345 342 336 330 329
214 214 235 228 214 202 205 207 212 217 222 229 241 251 257 264 269 273 273 273 274 275 277 276 275 278 282 287 292 297 301 307 314 316 322 326 331 331 331 334 335 335 332 326
209 216 227 238 214 207 205 209 215 218 221 227 235 242 247 251 254 258 260 261 263 267 269 266 262 267 273 279 285 286 286 291 297 304 310 316 319 324 330 332 333 336 338 337
200 214 217 220 214 210 210 214 219 221 226 229 236 240 244 249 252 254 256 259 265 270 276 280 265 267 277 286 287 284 286 292 297 302 306 311 314 317 320 323 326 328 329 329
227 233 226 223 219 216 215 218 222 224 226 232 234 238 242 248 256 259 262 261 265 270 275 280 279 279 283 285 282 283 289 290 292 297 300 305 309 312 310 310 311 313 314 316
230 235 240 235 233 232 227 226 226 227 228 230 235 241 251 255 255 259 264 268 269 279 279 272 274 278 278 271 272 278 281 280 283 288 293 299 301 300 300 301 302 306 307 309
228 232 237 243 240 236 234 232 229 227 229 232 235 236 244 249 254 261 265 270 271 273 270 265 269 273 271 270 272 275 277 280 285 289 293 295 295 293 293 294 295 299 302 305
236 234 236 238 245 239 235 232 227 225 226 229 232 240 248 251 253 256 260 269 272 264 262 262 266 266 266 270 271 276 280 283 285 287 287 287 287 288 289 289 290 294 298 301
253 247 234 237 241 236 233 229 227 228 227 228 231 233 238 245 251 255 259 266 247 252 258 260 260 262 265 268 271 274 278 281 282 284 288 288 284 281 282 287 289 293 296 298
273 258 244 238 238 239 231 226 223 225 227 228 231 234 241 249 249 251 255 260 250 251 250 250 255 260 265 268 271 275 278 280 282 283 285 289 291 280 282 288 290 294 296 299
289 258 248 242 240 235 226 223 221 221 223 225 229 235 237 237 241 247 247 253 257 259 262 260 261 263 265 269 272 273 276 280 276 279 279 285 291 287 287 288 292 295 298 301
289 266 244 242 236 234 230 225 220 216 216 219 225 229 232 235 237 239 250 258 263 266 270 269 270 271 274 280 283 286 285 286 286 283 284 287 289 288 286 288 293 298 300 303
280 273 256 238 238 235 228 223 221 219 217 219 224 228 233 238 244 245 250 258 264 269 273 275 277 279 282 284 285 286 286 288 289 287 284 282 282 283 286 292 298 302 303 306
286 267 249 238 227 225 228 224 220 218 219 219 221 226 233 240 247 257 263 265 267 269 272 276 279 280 281 283 283 284 283 281 275 274 275 278 282 287 293 297 301 305 305 306